Temperature
15 15 16 16 19 20 20 21 20 20 20 19 19 20 21 21 21 20 16 16 16 16 15 15 15 15 15 15 15 15 15 15 15 15 15 15 15 15 15 15 15 15 14 14 14 14 14 14 14
14 15 15 17 19 20 20 20 20 20 19 17 17 18 19 19 17 16 15 16 16 15 15 15 15 15 15 15 15 15 15 15 15 15 15 15 15 15 15 15 14 14 14 14 14 14 14 14 14
14 15 16 18 19 20 21 20 20 18 17 17 18 18 18 18 16 15 15 16 15 15 15 15 15 15 15 15 15 15 15 15 15 15 15 14 14 14 14 14 14 14 14 14 14 14 14 14 14
14 15 16 18 19 19 20 20 18 18 17 16 17 18 16 15 14 14 15 15 15 15 15 15 15 15 15 15 15 15 15 15 14 14 14 14 14 14 14 14 14 14 14 14 14 14 14 14 14
14 16 17 18 18 19 18 17 17 18 18 17 17 18 17 14 14 15 15 15 15 15 15 15 15 15 14 14 14 14 14 14 14 14 14 14 14 14 14 14 14 14 14 14 14 14 13 13 13
14 16 18 18 18 18 18 16 16 18 17 16 16 17 16 14 14 14 14 14 14 14 14 14 14 14 14 14 14 14 14 14 14 14 14 14 14 14 14 14 14 14 14 13 13 13 13 13 13
15 16 17 18 18 17 17 16 16 17 17 16 15 17 16 14 14 14 14 14 14 14 14 14 14 14 14 14 14 14 14 14 14 14 14 14 14 13 13 13 13 13 13 13 13 13 13 13 13
13 16 16 16 17 17 16 15 15 16 16 15 14 16 16 13 13 13 13 14 14 14 14 14 14 14 14 14 14 14 13 14 14 13 13 13 13 13 13 13 13 13 13 13 13 13 12 13 13
12 15 16 16 16 16 15 15 14 13 14 13 13 14 13 13 13 13 13 13 13 13 13 13 13 13 13 13 13 13 13 13 13 13 13 13 13 13 13 13 13 12 12 12 12 12 12 12 12
13 14 15 15 15 15 14 14 14 14 14 14 13 12 12 12 12 12 13 13 13 13 13 13 13 13 13 13 13 13 13 13 13 13 13 13 13 13 12 12 12 12 12 12 12 12 12 12 12
13 14 14 13 13 13 13 13 13 14 15 14 13 12 12 12 12 12 12 12 13 13 13 13 13 13 13 13 13 13 12 12 12 12 12 12 12 12 12 12 12 12 12 12 12 12 12 12 12
12 12 12 12 11 11 12 12 12 13 13 12 12 12 11 11 11 12 12 12 12 12 13 13 13 13 13 13 13 12 12 12 12 12 12 12 12 12 12 12 12 12 11 11 11 11 11 11 11
11 11 10 10 10 10 11 11 12 12 11 11 11 11 11 11 11 11 11 11 12 12 12 12 12 12 12 12 12 12 12 12 12 12 12 12 12 12 12 12 11 11 11 11 11 11 11 11 11
11 11 10 10 10 10 11 11 11 11 10 10 10 10 10 10 11 11 11 11 11 11 12 12 12 12 12 12 12 12 12 12 12 12 12 12 12 12 12 11 11 11 11 11 11 11 11 11 11
9 10 11 10 10 10 10 11 11 11 10 10 10 10 10 10 10 10 10 11 11 11 11 11 11 11 11 12 12 11 11 12 12 12 11 11 11 11 11 11 11 11 11 11 11 11 10 10 10
10 11 11 11 10 9 10 12 12 9 9 10 10 9 9 9 9 10 10 10 10 10 11 11 11 11 11 11 11 11 11 11 11 11 11 11 11 11 11 11 11 11 11 11 10 10 10 10 10
10 11 11 11 10 10 10 11 11 9 9 9 9 9 9 9 9 9 9 10 10 10 10 10 10 10 11 11 11 10 11 11 11 11 11 11 11 11 11 11 11 10 10 10 10 10 10 10 10
10 10 10 10 10 9 10 10 11 9 8 9 9 9 9 8 8 9 9 9 9 9 10 10 10 10 10 10 10 10 10 10 10 10 10 10 10 10 10 10 10 10 10 10 10 10 10 9 10
10 10 10 10 9 9 9 10 10 9 8 9 9 9 8 8 8 8 8 9 9 9 9 9 9 10 10 10 10 10 10 10 10 10 10 10 10 10 10 10 10 10 10 10 9 9 9 9 9
9 9 9 9 8 8 9 9 10 10 9 9 8 8 8 8 7 8 8 8 8 8 9 9 9 9 9 10 10 10 10 9 10 9 9 9 10 10 9 9 9 9 9 9 9 9 9 9 9
8 8 8 8 8 8 8 10 10 10 9 8 8 8 7 7 7 7 7 7 8 8 8 8 9 9 9 9 9 9 9 9 9 9 9 9 9 9 9 9 9 9 9 9 9 9 8 8 8
8 8 8 7 8 9 8 9 11 10 9 9 8 7 7 6 6 6 6 7 7 8 8 8 8 8 9 9 9 9 9 9 9 9 9 9 9 9 9 9 9 8 8 8 8 8 8 8 8
7 7 7 7 7 7 8 7 10 9 9 9 9 7 6 6 6 6 6 6 7 7 7 8 8 8 8 8 8 8 8 8 8 8 8 8 8 8 8 8 8 8 8 8 8 8 7 7 7
6 6 6 6 7 7 8 8 9 10 9 9 8 7 6 5 5 6 6 6 6 6 7 7 7 7 8 8 8 8 8 8 8 8 8 8 8 8 8 8 8 7 7 7 7 7 7 7 7
6 6 7 7 7 8 7 7 9 9 9 8 8 6 5 5 5 5 5 5 5 6 6 6 7 7 7 7 7 7 7 7 7 7 7 7 7 7 7 7 7 7 7 7 7 7 7 7 7
6 6 7 7 8 8 6 7 9 8 7 6 6 5 5 4 4 5 5 5 5 5 6 6 6 6 6 7 7 7 6 7 6 7 7 7 7 7 7 7 7 7 7 6 6 6 6 6 6
5 6 6 6 5 6 8 8 8 7 7 6 5 5 4 4 4 4 4 4 4 5 5 6 6 6 6 6 6 6 6 6 6 6 6 6 6 6 6 6 6 6 6 6 6 6 6 6 6
5 5 5 5 6 7 8 8 8 7 7 6 5 5 4 4 4 4 4 4 4 4 5 5 5 5 6 6 6 6 6 6 6 6 6 6 6 6 6 6 6 6 6 6 5 5 5 5 5
4 4 4 5 5 6 7 8 8 7 7 6 5 4 4 3 3 3 3 3 3 4 4 5 5 5 5 5 5 5 5 5 5 5 5 5 5 5 5 5 5 5 5 5 5 5 5 5 5
4 5 4 5 4 5 6 8 7 6 6 5 5 4 3 3 3 3 3 3 3 3 3 4 4 4 4 4 4 4 4 4 5 5 5 5 5 5 4 4 4 4 5 5 5 4 4 4 4
Wind_Speed
3 1 2 3 5 6 11 8 6 5 4 2 2 3 3 3 2 1 3 2 3 7 10 12 11 12 13 12 12 12 12 11 11 11 10 10 9 9 9 9 9 9 9 10 11 11 11 11 11
2 2 3 4 7 10 10 8 8 6 2 2 3 4 4 3 1 1 2 2 4 7 9 11 12 12 12 12 12 12 12 11 11 11 10 9 9 9 9 9 9 9 9 9 10 10 10 11 11
1 2 4 4 8 12 9 6 6 4 3 3 3 2 3 2 1 0 1 3 5 7 9 10 11 12 12 12 12 12 12 11 11 10 10 9 9 9 9 9 9 9 9 9 9 10 10 10 10
2 3 4 7 13 11 8 4 3 4 4 3 3 3 2 1 1 1 1 4 6 7 8 10 11 11 12 12 12 12 12 11 11 10 10 9 9 9 8 8 9 9 9 8 9 9 9 9 9
2 4 7 10 14 9 6 5 4 5 4 4 4 3 3 2 2 1 2 4 5 7 8 10 11 11 11 11 11 11 11 11 11 10 10 9 9 9 9 8 8 8 8 8 9 9 9 9 9
4 4 8 13 13 9 7 6 6 7 5 3 4 4 3 2 2 2 2 4 4 5 7 9 11 11 11 11 11 11 11 11 11 10 10 9 9 9 9 8 7 7 8 8 8 9 8 9 9
5 6 10 12 10 9 7 6 8 8 8 6 3 4 3 2 1 1 2 3 4 4 6 7 9 10 10 10 10 10 10 10 10 10 10 9 9 9 8 8 7 7 7 7 7 8 8 8 8
3 4 8 9 10 9 5 5 5 7 7 4 4 5 4 1 1 1 2 3 3 3 4 5 7 9 9 10 10 10 10 10 9 9 10 10 9 9 8 7 7 7 7 6 6 7 8 8 8
3 6 10 10 9 6 4 5 5 4 5 4 5 4 2 1 1 2 2 3 3 3 3 4 5 6 7 8 9 10 10 9 9 9 10 9 7 7 7 7 7 7 7 6 6 6 7 7 7
5 8 11 6 6 5 5 5 4 4 7 6 6 4 1 3 4 4 4 4 4 4 3 3 4 5 6 6 7 7 8 8 8 8 9 7 6 5 6 7 7 7 6 6 6 6 6 5 5
5 8 7 6 5 4 5 5 5 7 8 8 7 6 4 4 5 6 6 5 5 5 4 3 3 3 5 5 5 5 5 7 7 8 8 7 6 5 5 5 6 6 5 4 4 4 4 4 3
5 6 6 5 4 5 6 5 6 9 8 6 7 6 6 6 7 7 6 5 5 5 5 4 4 3 4 5 4 5 5 5 6 7 8 7 5 4 4 4 4 4 3 3 3 2 3 3 3
7 6 6 6 5 6 6 8 8 10 8 7 5 5 6 7 7 7 6 5 5 5 5 5 5 4 4 4 4 4 5 5 7 7 8 7 6 5 4 3 3 3 3 3 3 3 3 3 3
5 5 5 5 6 6 7 8 8 9 6 5 5 7 7 7 7 6 6 6 6 5 6 5 6 5 5 4 4 4 5 5 6 6 8 8 7 5 5 4 4 3 3 3 3 3 3 2 2
3 4 5 5 5 4 5 9 10 8 5 6 6 6 7 7 6 7 7 7 6 5 5 5 6 6 5 5 5 4 5 5 5 5 7 7 7 7 5 5 4 3 3 3 3 3 2 2 2
3 5 6 3 3 3 5 10 6 3 4 5 5 6 6 6 7 6 7 6 6 5 5 5 4 5 5 5 4 4 5 5 5 5 6 7 7 7 6 5 4 5 4 4 3 3 2 2 2
4 6 8 5 3 3 6 9 5 2 4 6 6 5 5 6 6 6 6 6 6 5 5 5 5 5 5 5 4 4 4 4 4 5 5 6 7 7 6 4 4 5 4 4 3 3 3 2 2
6 7 7 7 3 4 8 10 7 4 5 7 7 7 6 6 6 5 5 5 5 5 4 5 4 5 5 4 4 3 4 3 3 4 5 6 6 7 6 4 4 5 4 4 4 4 3 2 2
5 7 9 7 3 5 10 12 11 7 6 7 7 7 6 6 5 4 4 4 4 4 4 4 4 4 4 4 4 5 4 4 4 3 5 6 7 7 6 5 5 5 5 5 5 4 4 2 2
7 8 8 6 4 6 8 12 11 8 9 8 8 7 7 5 4 4 4 4 4 3 4 4 4 4 5 4 4 4 4 4 4 3 4 5 6 7 6 6 5 5 5 5 6 5 4 3 3
8 9 9 7 5 5 7 9 8 6 6 7 7 7 7 6 5 4 4 4 3 3 4 4 4 4 5 5 4 4 4 3 3 4 4 5 6 6 6 6 6 5 5 5 6 6 6 4 4
8 7 8 7 6 4 4 7 6 5 5 6 6 5 5 5 4 4 4 3 4 3 3 3 4 4 4 5 5 7 6 5 4 4 4 5 5 6 6 6 6 6 5 5 5 5 6 6 4
6 4 6 7 6 6 5 6 6 3 6 6 4 4 4 4 4 4 4 3 3 2 2 2 3 3 4 5 6 7 6 4 3 4 4 4 3 4 5 5 5 5 5 5 5 5 6 5 5
2 1 1 3 4 7 8 8 7 5 6 5 4 4 4 4 4 3 3 2 2 1 1 1 2 2 3 4 5 6 6 6 5 5 4 3 3 2 3 4 5 5 5 5 5 5 6 5 5
1 2 2 4 5 6 3 6 8 5 5 5 5 4 4 3 3 3 2 2 2 1 1 1 2 2 3 4 4 5 6 6 6 6 5 4 3 2 3 4 4 4 4 4 5 5 5 5 5
5 5 5 5 6 4 3 7 5 3 4 4 4 4 3 3 3 3 3 2 2 2 1 1 2 3 3 3 4 4 5 4 4 5 4 4 3 3 3 4 4 4 4 4 4 4 4 4 5
4 5 4 3 3 5 6 6 6 3 3 3 4 3 3 3 3 2 2 2 2 2 2 2 2 2 3 3 3 4 4 4 4 4 3 3 2 2 3 3 4 4 4 4 4 3 4 4 5
4 3 3 4 4 6 7 7 5 4 4 3 3 3 3 3 3 3 2 2 2 2 1 1 2 1 2 2 2 2 3 3 4 3 3 3 2 2 2 3 3 4 4 4 4 3 3 4 4
4 4 4 4 4 5 6 5 2 4 3 3 3 3 3 3 3 3 2 2 2 2 1 0 0 1 1 1 2 2 3 3 3 3 3 2 2 2 3 3 3 3 3 4 3 3 4 5 4
6 7 7 5 5 5 6 6 1 2 3 3 4 3 3 4 3 3 3 2 2 1 1 1 1 1 1 1 1 2 3 3 3 3 3 3 2 2 2 3 3 3 3 3 4 4 4 5 5
Wind_Direction
304 268 222 211 211 221 233 224 218 193 201 219 210 211 209 216 233 61 54 118 149 159 161 163 162 157 153 147 142 138 136 135 131 127 124 125 126 120 119 116 113 108 104 101 99 96 94 92 91
286 227 205 210 224 225 229 223 217 211 184 170 200 212 209 209 348 42 76 132 161 160 162 163 158 157 154 151 145 142 141 138 133 129 126 126 131 127 122 122 117 112 107 103 100 98 97 96 95
228 230 208 205 224 232 230 211 216 214 196 209 197 216 228 192 146 55 34 161 162 158 163 157 156 156 155 155 151 147 144 140 136 133 129 130 130 132 126 124 121 116 111 107 105 103 100 98 98
207 191 208 225 228 232 242 223 199 189 202 221 222 195 168 64 9 12 115 164 162 158 162 156 157 156 153 154 154 152 148 144 140 136 133 132 129 127 129 123 123 119 115 112 111 108 105 102 102
212 206 211 227 236 235 240 249 223 211 204 208 220 220 183 117 25 44 135 157 161 160 163 160 159 156 154 153 154 153 151 149 146 142 139 136 130 126 124 123 125 123 119 115 115 112 108 106 105
191 210 222 232 234 235 235 231 223 233 232 223 232 233 195 126 59 72 140 157 159 160 165 163 163 161 157 156 157 154 152 150 149 147 144 139 134 129 124 120 123 125 122 118 117 116 113 110 108
212 215 234 240 241 239 232 226 230 234 232 228 234 233 199 162 48 89 156 161 157 161 166 167 171 170 163 160 155 155 154 150 148 148 143 137 135 130 127 123 119 120 119 120 121 121 118 116 113
227 218 232 234 237 242 229 220 243 245 244 237 227 233 218 202 15 134 158 163 163 169 169 170 176 176 174 168 156 154 153 146 143 145 139 132 132 131 130 130 124 121 120 120 122 123 125 119 117
213 224 233 233 234 234 212 223 235 255 242 231 230 254 297 141 168 164 168 172 174 185 183 177 181 181 178 173 161 157 156 146 143 143 138 138 144 142 140 134 127 124 121 124 123 120 121 121 121
205 226 237 240 243 243 224 236 233 229 234 231 231 242 225 190 193 197 200 199 196 201 201 190 186 185 182 176 169 169 167 160 160 157 155 155 149 142 137 128 126 123 120 122 122 124 137 143 140
211 231 237 246 255 259 244 249 242 237 242 243 247 234 214 216 218 221 221 219 214 209 208 207 195 189 188 181 176 171 171 168 168 164 159 153 145 145 148 147 141 138 137 138 133 156 165 161 150
223 239 243 254 260 258 256 256 252 243 254 285 273 244 224 224 227 229 228 233 230 220 213 212 204 194 191 187 181 176 175 174 172 169 165 159 153 158 162 163 166 165 160 155 163 163 159 159 159
234 246 253 259 255 257 263 255 256 255 270 281 259 233 232 235 238 236 237 235 237 229 222 216 211 203 194 187 187 182 184 182 179 173 172 170 166 167 169 170 170 173 170 168 172 171 165 166 163
239 244 256 263 250 251 257 264 255 259 264 255 236 231 235 238 240 240 242 238 236 237 231 221 213 207 197 193 188 189 189 184 183 178 178 177 176 174 172 173 173 173 176 176 176 175 171 171 172
239 249 263 260 251 255 257 258 249 261 258 246 235 234 236 241 242 242 242 239 237 235 237 232 219 207 200 198 197 191 191 186 184 181 181 181 180 178 177 178 178 174 173 172 171 171 168 174 183
236 239 247 241 231 228 231 258 256 268 245 240 240 240 238 241 245 250 250 249 248 239 234 239 228 213 202 200 200 193 188 186 187 182 180 182 182 181 177 180 182 175 174 173 177 184 182 186 201
231 240 245 248 229 236 232 262 272 283 250 247 248 247 243 243 250 254 254 250 248 240 230 229 228 218 207 198 193 186 183 185 188 182 177 179 181 182 178 182 179 175 173 176 181 189 191 187 192
238 243 249 249 244 247 247 261 277 287 264 258 255 253 250 250 256 259 256 254 247 237 232 224 221 217 206 194 186 183 181 181 184 188 182 179 180 183 176 176 178 174 174 181 186 182 182 188 182
259 254 258 259 270 261 259 269 277 276 264 258 258 257 257 256 261 271 274 265 246 229 226 222 210 207 199 193 192 192 193 188 185 192 185 181 180 181 178 175 178 181 185 188 184 180 179 185 176
252 256 264 271 279 265 273 274 274 261 252 253 257 258 256 259 266 269 270 271 254 238 227 223 215 205 202 199 197 200 188 185 180 177 180 181 182 183 182 181 182 185 186 187 187 181 189 199 201
247 251 258 269 292 266 284 278 259 255 254 259 259 258 259 259 266 276 271 271 272 250 236 226 218 211 205 195 184 175 174 175 180 183 187 185 187 182 182 184 185 184 189 192 196 195 195 200 207
255 259 255 259 265 263 264 279 269 248 255 261 262 258 260 263 268 279 280 277 275 266 250 230 219 211 202 191 188 183 187 189 192 187 187 182 187 183 184 183 183 186 189 194 199 207 205 203 205
260 272 249 247 248 264 246 254 273 262 262 267 264 265 275 274 271 272 274 271 278 278 259 243 217 208 197 191 192 193 192 189 178 176 174 176 179 184 185 183 181 187 190 192 194 200 209 212 212
256 234 232 238 238 250 243 235 271 250 258 270 275 280 290 288 279 271 271 270 283 283 265 240 216 205 194 187 189 192 187 183 177 177 175 178 179 182 185 185 190 190 189 192 194 200 204 211 213
240 220 222 219 226 246 222 232 258 272 270 271 283 291 293 292 285 280 279 270 276 276 273 229 215 201 198 190 186 190 190 186 186 182 180 182 186 194 198 189 196 197 193 190 190 197 203 207 208
219 224 234 246 250 251 218 238 255 306 309 304 300 301 306 297 289 284 282 274 268 260 251 235 211 196 198 196 191 191 192 188 190 191 184 189 192 192 197 190 192 194 191 187 189 198 204 206 205
206 221 247 258 272 261 244 256 271 274 299 315 320 322 321 312 307 307 305 297 295 278 262 234 221 203 197 200 192 186 184 183 187 188 185 183 181 179 185 188 187 190 188 186 188 200 204 202 202
244 202 196 220 246 254 257 256 254 251 272 303 321 325 328 331 330 333 324 313 312 303 274 246 227 213 195 186 187 182 176 181 181 176 177 175 168 167 170 182 185 188 188 186 185 194 205 204 203
194 204 216 225 247 253 262 261 257 248 271 279 297 312 322 329 327 328 328 316 315 326 330 269 203 153 148 158 165 166 167 170 165 165 170 163 152 162 167 179 185 189 191 185 185 196 202 206 206
229 221 209 224 232 237 258 265 53 269 307 311 316 321 326 328 321 323 326 329 336 353 359 29 72 104 119 142 148 150 160 159 155 154 159 155 150 161 172 177 185 191 192 188 191 200 210 212 209
Height
1517 1518 1520 1523 1522 1517 1511 1509 1510 1513 1514 1516 1516 1516 1514 1514 1516 1520 1519 1516 1517 1519 1520 1522 1524 1526 1527 1529 1530 1531 1532 1533 1534 1534 1535 1536 1536 1536 1537 1537 1537 1538 1538 1538 1538 1538 1538 1538 1538
1517 1519 1522 1522 1516 1512 1509 1508 1511 1512 1515 1516 1516 1516 1515 1515 1517 1518 1516 1516 1517 1519 1521 1522 1524 1526 1527 1529 1530 1531 1532 1533 1534 1535 1535 1536 1536 1537 1537 1537 1538 1538 1538 1538 1539 1539 1539 1538 1538
1517 1518 1521 1517 1512 1506 1504 1507 1509 1513 1516 1516 1516 1516 1516 1516 1517 1517 1516 1516 1518 1519 1521 1522 1524 1526 1527 1528 1530 1531 1532 1533 1534 1535 1535 1536 1536 1537 1538 1538 1538 1538 1539 1539 1539 1539 1539 1539 1539
1517 1520 1520 1514 1507 1505 1505 1508 1511 1513 1515 1516 1516 1515 1516 1516 1516 1516 1516 1516 1518 1519 1521 1522 1524 1525 1527 1528 1529 1531 1532 1533 1534 1535 1535 1536 1537 1537 1538 1538 1538 1539 1539 1539 1539 1539 1539 1540 1540
1516 1517 1514 1510 1505 1506 1509 1511 1513 1512 1513 1514 1515 1513 1514 1515 1514 1515 1515 1516 1518 1519 1521 1522 1524 1525 1527 1528 1529 1530 1531 1532 1533 1534 1535 1536 1536 1537 1538 1538 1539 1539 1539 1539 1539 1540 1540 1540 1540
1517 1514 1509 1504 1502 1506 1509 1512 1513 1512 1512 1514 1515 1513 1514 1514 1513 1514 1515 1516 1518 1519 1521 1522 1523 1525 1526 1527 1528 1529 1530 1531 1532 1534 1534 1535 1536 1537 1537 1538 1538 1539 1539 1539 1540 1540 1540 1540 1540
1515 1511 1505 1502 1502 1505 1508 1511 1511 1510 1511 1513 1514 1513 1513 1513 1513 1514 1515 1516 1517 1518 1520 1521 1522 1524 1525 1526 1527 1528 1530 1531 1532 1533 1534 1535 1536 1536 1537 1537 1538 1539 1539 1539 1540 1540 1540 1540 1540
1513 1511 1507 1504 1504 1504 1508 1510 1511 1511 1510 1512 1513 1512 1512 1513 1512 1513 1514 1515 1517 1518 1519 1520 1521 1522 1524 1525 1526 1527 1528 1530 1530 1531 1533 1534 1535 1536 1536 1537 1538 1538 1538 1539 1539 1540 1540 1540 1540
1512 1511 1504 1502 1503 1503 1508 1509 1510 1510 1510 1510 1511 1512 1511 1511 1511 1512 1513 1514 1515 1516 1517 1518 1519 1521 1522 1523 1525 1526 1527 1528 1529 1530 1531 1533 1534 1535 1535 1536 1537 1537 1538 1538 1539 1539 1539 1540 1540
1511 1506 1501 1503 1504 1504 1507 1507 1508 1509 1508 1508 1509 1509 1509 1510 1510 1511 1512 1512 1513 1514 1515 1516 1518 1519 1520 1522 1523 1524 1525 1527 1528 1529 1530 1531 1532 1533 1534 1535 1536 1536 1537 1537 1538 1538 1539 1539 1539
1508 1504 1503 1505 1506 1507 1506 1507 1507 1506 1505 1506 1507 1507 1507 1508 1509 1510 1510 1511 1512 1512 1513 1514 1515 1516 1518 1519 1520 1522 1523 1524 1526 1527 1528 1529 1530 1532 1533 1534 1534 1535 1536 1536 1536 1537 1538 1538 1539
1507 1506 1506 1505 1506 1507 1506 1506 1506 1505 1504 1505 1505 1505 1505 1506 1506 1507 1508 1508 1509 1510 1511 1512 1513 1514 1515 1516 1518 1519 1521 1522 1523 1525 1526 1527 1528 1530 1531 1532 1533 1534 1534 1535 1535 1535 1536 1537 1538
1506 1505 1506 1506 1506 1506 1506 1504 1504 1502 1503 1502 1502 1502 1502 1503 1504 1505 1506 1506 1506 1507 1508 1509 1510 1511 1512 1513 1515 1516 1518 1519 1521 1522 1524 1525 1526 1527 1529 1530 1531 1532 1533 1533 1534 1534 1535 1536 1536
1505 1505 1505 1504 1504 1505 1504 1502 1502 1498 1500 1500 1499 1499 1500 1500 1501 1502 1502 1503 1503 1504 1505 1506 1507 1508 1509 1510 1511 1513 1515 1516 1518 1519 1521 1522 1524 1525 1526 1528 1529 1530 1531 1532 1532 1533 1534 1534 1535
1506 1505 1503 1502 1503 1503 1503 1498 1497 1497 1498 1497 1496 1497 1497 1497 1498 1498 1499 1500 1500 1501 1502 1503 1503 1504 1506 1507 1508 1510 1511 1513 1515 1516 1518 1520 1521 1522 1524 1525 1526 1528 1529 1530 1530 1531 1532 1532 1533
1504 1501 1498 1498 1501 1502 1503 1492 1492 1494 1494 1494 1494 1494 1494 1494 1495 1495 1496 1496 1497 1497 1498 1499 1500 1501 1502 1503 1505 1507 1508 1510 1512 1513 1515 1517 1518 1520 1521 1522 1524 1525 1526 1527 1528 1529 1530 1530 1531
1500 1497 1494 1496 1499 1499 1498 1491 1491 1493 1493 1492 1492 1491 1491 1491 1492 1492 1493 1493 1493 1494 1494 1496 1496 1497 1498 1500 1502 1503 1505 1506 1508 1510 1512 1514 1515 1517 1518 1520 1521 1522 1524 1525 1526 1527 1528 1528 1529
1496 1494 1494 1493 1496 1498 1495 1490 1490 1491 1491 1490 1489 1489 1489 1488 1489 1489 1490 1490 1490 1490 1491 1492 1493 1494 1495 1497 1498 1500 1502 1503 1505 1506 1508 1510 1512 1514 1516 1517 1518 1520 1521 1522 1523 1524 1525 1526 1527
1496 1495 1492 1492 1496 1497 1492 1488 1487 1488 1488 1487 1486 1486 1486 1486 1486 1486 1487 1487 1487 1487 1487 1488 1489 1490 1492 1493 1494 1496 1498 1499 1501 1503 1505 1507 1509 1511 1512 1514 1515 1517 1518 1519 1520 1521 1522 1523 1524
1498 1495 1493 1493 1496 1495 1490 1486 1484 1484 1484 1483 1483 1483 1483 1483 1483 1483 1483 1483 1483 1483 1484 1485 1486 1487 1489 1490 1491 1493 1495 1496 1498 1500 1502 1504 1505 1507 1509 1510 1512 1513 1514 1516 1517 1518 1519 1520 1522
1496 1495 1493 1493 1494 1493 1491 1480 1477 1479 1480 1480 1480 1480 1480 1480 1480 1480 1479 1479 1480 1480 1481 1482 1483 1484 1486 1487 1488 1490 1492 1493 1495 1497 1498 1500 1502 1504 1505 1507 1508 1510 1511 1513 1514 1515 1516 1518 1519
1492 1494 1495 1494 1492 1487 1489 1479 1470 1473 1476 1476 1476 1477 1477 1477 1477 1477 1476 1476 1477 1477 1478 1479 1480 1481 1482 1483 1485 1486 1488 1489 1491 1493 1495 1497 1499 1501 1502 1504 1505 1507 1508 1509 1511 1512 1513 1515 1515
1494 1495 1494 1494 1492 1490 1488 1487 1470 1473 1472 1472 1473 1474 1474 1474 1474 1474 1473 1474 1474 1475 1475 1476 1477 1478 1479 1480 1481 1483 1485 1487 1489 1490 1492 1494 1496 1498 1499 1500 1501 1503 1505 1506 1507 1508 1510 1511 1512
1496 1495 1494 1493 1491 1489 1481 1482 1469 1468 1469 1469 1471 1472 1472 1472 1472 1471 1471 1472 1472 1472 1473 1473 1474 1475 1476 1477 1479 1480 1482 1484 1486 1487 1489 1490 1492 1494 1495 1496 1498 1500 1501 1502 1504 1505 1506 1508 1509
1495 1492 1488 1486 1484 1476 1479 1479 1470 1466 1468 1469 1470 1470 1470 1470 1469 1469 1469 1469 1469 1469 1470 1471 1471 1473 1474 1475 1476 1478 1479 1481 1482 1484 1485 1487 1488 1490 1491 1493 1495 1496 1498 1499 1500 1502 1503 1504 1505
1493 1491 1487 1481 1473 1470 1481 1475 1466 1469 1470 1469 1469 1469 1468 1468 1468 1467 1467 1467 1467 1467 1467 1468 1469 1470 1471 1472 1474 1475 1477 1478 1480 1481 1482 1484 1485 1486 1488 1490 1492 1493 1494 1496 1497 1498 1499 1500 1501
1491 1490 1490 1488 1487 1482 1471 1469 1467 1468 1468 1468 1468 1467 1467 1466 1466 1465 1465 1465 1465 1465 1465 1466 1466 1467 1469 1470 1471 1472 1474 1475 1477 1478 1479 1481 1482 1484 1485 1487 1489 1490 1491 1492 1493 1494 1496 1497 1497
1492 1490 1491 1488 1482 1472 1466 1465 1461 1463 1464 1465 1466 1465 1465 1465 1464 1464 1463 1463 1463 1463 1463 1464 1464 1465 1466 1467 1468 1470 1471 1473 1474 1476 1477 1478 1480 1481 1482 1484 1485 1487 1488 1489 1490 1491 1492 1493 1493
1492 1492 1489 1486 1484 1475 1466 1460 1459 1462 1463 1464 1465 1465 1465 1464 1463 1462 1462 1462 1461 1461 1461 1461 1462 1463 1463 1465 1466 1467 1469 1470 1471 1473 1474 1475 1477 1478 1480 1481 1482 1484 1485 1485 1486 1487 1488 1489 1489
1488 1487 1487 1485 1484 1481 1472 1463 1462 1463 1464 1464 1464 1464 1464 1463 1463 1462 1461 1460 1460 1459 1459 1459 1460 1461 1461 1462 1463 1465 1466 1468 1469 1470 1472 1473 1474 1476 1477 1478 1479 1481 1481 1482 1483 1484 1484 1485 1485